Angleton, TX

2:33 PM CDT on October 18, 2017 (GMT -0500)
Brazoria County

Weather History for KLBX - October, 2012

Change the Weather History Date:

Tuesday, October 9, 2012

  Actual Average Record
Temperature  
Mean Temperature 72 °F -  
Max Temperature 82 °F 79 °F 93 °F (2017)
Min Temperature 63 °F 62 °F 46 °F (2000)
Cooling Degree Days 8    
Growing Degree Days 22 (Base 50)    
Moisture  
Dew Point 63 °F    
Average Humidity 74    
Maximum Humidity 90    
Minimum Humidity 58    
Precipitation  
Precipitation 0.00 in - - ()
Sea Level Pressure  
Sea Level Pressure 30.03 in    
Wind  
Wind Speed 6 mph (SSE)    
Max Wind Speed 15 mph    
Max Gust Speed 17 mph    
Visibility 10 miles    
Events      
Averages and records for this station are not official NWS values.
T = Trace of Precipitation, MM = Missing Value Source: NWS Daily Summary

Daily Weather History Graph

Daily Weather History Graph

Search for Another Location

Airport or City:

Trip Planner

Search our weather history database for the weather conditions in past years. The results will help you decide how hot, cold, wet, or windy it might be!

Date:

Astronomy

Oct. 09, 2012 Rise Set
Actual Time 7:19 AM CDT 6:57 PM CDT
Civil Twilight 6:55 AM CDT 7:21 PM CDT
Nautical Twilight 6:28 AM CDT 7:48 PM CDT
Astronomical Twilight 6:00 AM CDT 8:16 PM CDT
Moon 1:24 AM CDT (10/9) 3:00 PM CDT (10/9)
Length of Visible Light 12h 25m
Length of Day
11h 37m
Last Quarter, 36% of the Moon is Illuminated
Oct 9
Last Quarter
Oct 15
New
Oct 21
First Quarter
Oct 29
Full
Nov 6
Last Quarter

Hourly Weather History & Observations

Time (CDT) Temp. Heat Index Dew Point Humidity Pressure Visibility Wind Dir Wind Speed Gust Speed Precip Events Conditions
12:53 AM 63.0 °F - 55.0 °F 75% 30.09 in 10.0 mi Calm Calm - N/A   Overcast
1:53 AM 63.0 °F - 55.9 °F 78% 30.09 in 10.0 mi Calm Calm - N/A   Overcast
3:53 AM 64.0 °F - 57.9 °F 80% 30.06 in 10.0 mi NNE 3.5 mph - N/A   Overcast
4:53 AM 63.0 °F - 57.9 °F 84% 30.05 in 10.0 mi NNE 8.1 mph - N/A   Overcast
5:53 AM 63.0 °F - 57.9 °F 84% 30.06 in 10.0 mi ENE 4.6 mph - N/A   Overcast
6:53 AM 63.0 °F - 57.9 °F 84% 30.06 in 10.0 mi Calm Calm - N/A   Overcast
7:53 AM 64.0 °F - 59.0 °F 84% 30.06 in 10.0 mi NE 4.6 mph - N/A   Overcast
8:53 AM 68.0 °F - 62.1 °F 81% 30.07 in 10.0 mi SE 5.8 mph - N/A   Overcast
9:53 AM 78.1 °F - 64.9 °F 64% 30.08 in 10.0 mi SSE 11.5 mph - N/A   Mostly Cloudy
10:53 AM 79.0 °F - 64.9 °F 62% 30.09 in 10.0 mi South 11.5 mph - N/A   Mostly Cloudy
11:53 AM 79.0 °F - 64.9 °F 62% 30.07 in 10.0 mi South 15.0 mph - N/A   Mostly Cloudy
12:53 PM 80.1 °F 81.9 °F 64.9 °F 60% 30.05 in 10.0 mi South 11.5 mph 17.3 mph N/A   Mostly Cloudy
1:53 PM 81.0 °F 83.0 °F 66.0 °F 60% 30.02 in 10.0 mi South 11.5 mph - N/A   Overcast
2:53 PM 82.0 °F 84.1 °F 66.0 °F 58% 30.00 in 10.0 mi SSE 12.7 mph - N/A   Partly Cloudy
3:53 PM 81.0 °F 83.0 °F 66.0 °F 60% 29.99 in 10.0 mi SSE 9.2 mph - N/A   Overcast
4:53 PM 79.0 °F - 66.0 °F 64% 29.98 in 10.0 mi South 12.7 mph - N/A   Overcast
5:53 PM 79.0 °F - 66.9 °F 66% 29.98 in 10.0 mi South 12.7 mph - N/A   Mostly Cloudy
6:53 PM 75.0 °F - 66.9 °F 76% 29.98 in 10.0 mi South 8.1 mph - N/A   Clear
7:53 PM 73.0 °F - 66.9 °F 81% 29.98 in 10.0 mi South 9.2 mph - N/A   Clear
8:53 PM 73.0 °F - 68.0 °F 84% 29.99 in 10.0 mi SSE 9.2 mph - N/A   Clear
9:53 PM 73.0 °F - 68.0 °F 84% 30.00 in 10.0 mi South 11.5 mph - N/A   Clear
10:53 PM 71.1 °F - 68.0 °F 90% 30.01 in 10.0 mi South 6.9 mph - N/A   Clear
11:53 PM 71.1 °F - 68.0 °F 90% 30.00 in 10.0 mi South 6.9 mph - N/A   Clear